Buckhannon, WV

10:48 PM EDT on May 25, 2018 (GMT -0400)
Buckhannon

Weather History for KW22 - March, 2012

Change the Weather History Date:

Thursday, March 1, 2012

  Actual Average (KCKB) Record (KCKB)
Temperature  
Mean Temperature 48 °F -  
Max Temperature 55 °F 46 °F 74 °F (1976)
Min Temperature 41 °F 23 °F -18 °F (1934)
Degree Days  
Heating Degree Days 17    
Moisture  
Dew Point 35 °F    
Average Humidity 59    
Maximum Humidity 94    
Minimum Humidity 44    
Precipitation  
Precipitation 0.00 in - - ()
Sea Level Pressure  
Sea Level Pressure 29.79 in    
Wind  
Wind Speed 13 mph (WSW)    
Max Wind Speed 24 mph    
Max Gust Speed 31 mph    
Visibility 10 miles    
Events      
Averages and records for this station are not official NWS values.
T = Trace of Precipitation, MM = Missing Value Source: NWS Daily Summary

Daily Weather History Graph

Daily Weather History Graph

Search for Another Location

Airport or City:

Astronomy

Mar. 01, 2012 Rise Set
Actual Time 6:52 AM EST 6:14 PM EST
Civil Twilight 6:26 AM EST 6:41 PM EST
Nautical Twilight 5:55 AM EST 7:11 PM EST
Astronomical Twilight 5:24 AM EST 7:42 PM EST
Moon 11:35 AM EST (3/1) 1:48 AM EST (3/1)
Length of Visible Light 12h 14m
Length of Day
11h 21m
First Quarter, 56% of the Moon is Illuminated
Mar 1
First Quarter
Mar 8
Full
Mar 14
Last Quarter
Mar 22
New
Mar 30
First Quarter

Hourly Weather History & Observations

Time (EST) Temp. Windchill Dew Point Humidity Pressure Visibility Wind Dir Wind Speed Gust Speed Precip Events Conditions
12:15 AM 53.6 °F - 51.8 °F 94% 29.69 in 10.0 mi SSW 8.1 mph - N/A   Clear
12:35 AM 53.6 °F - 51.8 °F 94% 29.69 in 10.0 mi SW 8.1 mph - N/A   Clear
12:55 AM 53.6 °F - 51.8 °F 94% 29.69 in 10.0 mi SSW 10.4 mph - N/A   Partly Cloudy
1:15 AM 53.6 °F - 51.8 °F 94% 29.69 in 10.0 mi SW 10.4 mph - N/A   Partly Cloudy
1:35 AM 55.4 °F - 48.2 °F 77% 29.68 in 10.0 mi SW 12.7 mph 17.3 mph N/A   Partly Cloudy
1:55 AM 55.4 °F - 48.2 °F 77% 29.68 in 10.0 mi SW 11.5 mph 17.3 mph N/A   Partly Cloudy
2:15 AM 55.4 °F - 48.2 °F 77% 29.68 in 10.0 mi SW 15.0 mph 19.6 mph N/A   Clear
2:35 AM 55.4 °F - 46.4 °F 72% 29.68 in 10.0 mi SW 16.1 mph 20.7 mph N/A   Clear
2:55 AM 55.4 °F - 46.4 °F 72% 29.68 in 10.0 mi SW 13.8 mph 20.7 mph N/A   Partly Cloudy
3:15 AM 53.6 °F - 44.6 °F 72% 29.68 in 10.0 mi SW 18.4 mph 25.3 mph N/A   Partly Cloudy
3:35 AM 53.6 °F - 42.8 °F 67% 29.69 in 10.0 mi WSW 17.3 mph 28.8 mph N/A   Clear
3:55 AM 53.6 °F - 37.4 °F 54% 29.69 in 10.0 mi WSW 16.1 mph 26.5 mph N/A   Clear
4:15 AM 53.6 °F - 35.6 °F 51% 29.70 in 10.0 mi SW 21.9 mph 29.9 mph N/A   Clear
4:35 AM 51.8 °F - 37.4 °F 58% 29.72 in 10.0 mi West 17.3 mph 28.8 mph N/A   Partly Cloudy
4:55 AM 48.2 °F - 35.6 °F 62% 29.73 in 10.0 mi WNW 15.0 mph 21.9 mph N/A   Partly Cloudy
5:15 AM 46.4 °F 39.2 °F 32.0 °F 57% 29.75 in 10.0 mi West 18.4 mph 27.6 mph N/A   Partly Cloudy
5:35 AM 46.4 °F 40.1 °F 32.0 °F 57% 29.76 in 10.0 mi West 15.0 mph 21.9 mph N/A   Clear
5:55 AM 44.6 °F 39.2 °F 32.0 °F 61% 29.76 in 10.0 mi WSW 10.4 mph 18.4 mph N/A   Clear
6:15 AM 44.6 °F 39.2 °F 32.0 °F 61% 29.77 in 10.0 mi WSW 10.4 mph 18.4 mph N/A   Partly Cloudy
6:35 AM 44.6 °F 38.8 °F 32.0 °F 61% 29.77 in 10.0 mi WSW 11.5 mph 17.3 mph N/A   Mostly Cloudy
6:55 AM 44.6 °F 38.8 °F 32.0 °F 61% 29.77 in 10.0 mi WSW 11.5 mph - N/A   Partly Cloudy
7:15 AM 44.6 °F 38.4 °F 32.0 °F 61% 29.77 in 10.0 mi WSW 12.7 mph 19.6 mph N/A   Clear
7:35 AM 44.6 °F 38.1 °F 32.0 °F 61% 29.77 in 10.0 mi WSW 13.8 mph 18.4 mph N/A   Clear
7:55 AM 46.4 °F 40.1 °F 32.0 °F 57% 29.78 in 10.0 mi WSW 15.0 mph 18.4 mph N/A   Clear
8:15 AM 46.4 °F 39.2 °F 32.0 °F 57% 29.78 in 10.0 mi WSW 18.4 mph 21.9 mph N/A   Clear
8:35 AM 46.4 °F 39.2 °F 32.0 °F 57% 29.79 in 10.0 mi West 18.4 mph 25.3 mph N/A   Clear
8:55 AM 48.2 °F - 32.0 °F 54% 29.79 in 10.0 mi WSW 15.0 mph 21.9 mph N/A   Clear
9:15 AM 48.2 °F - 32.0 °F 54% 29.80 in 10.0 mi WSW 17.3 mph 28.8 mph N/A   Clear
9:35 AM 48.2 °F - 32.0 °F 54% 29.80 in 10.0 mi West 15.0 mph 23.0 mph N/A   Partly Cloudy
9:55 AM 48.2 °F - 32.0 °F 54% 29.79 in 10.0 mi West 17.3 mph 26.5 mph N/A   Scattered Clouds
10:15 AM 50.0 °F - 32.0 °F 50% 29.80 in 10.0 mi WSW 19.6 mph 28.8 mph N/A   Mostly Cloudy
10:35 AM 51.8 °F - 33.8 °F 50% 29.80 in 10.0 mi WSW 24.2 mph 31.1 mph N/A   Scattered Clouds
10:55 AM 51.8 °F - 33.8 °F 50% 29.81 in 10.0 mi West 16.1 mph 29.9 mph N/A   Partly Cloudy
11:15 AM 50.0 °F - 33.8 °F 54% 29.81 in 10.0 mi West 11.5 mph 26.5 mph N/A   Scattered Clouds
11:35 AM 50.0 °F - 33.8 °F 54% 29.81 in 10.0 mi West 19.6 mph - N/A   Scattered Clouds
11:55 AM 51.8 °F - 35.6 °F 54% 29.81 in 10.0 mi West 16.1 mph 21.9 mph N/A   Partly Cloudy
12:15 PM 51.8 °F - 33.8 °F 50% 29.81 in 10.0 mi WSW 21.9 mph 28.8 mph N/A   Partly Cloudy
12:35 PM 51.8 °F - 33.8 °F 50% 29.80 in 10.0 mi SW 21.9 mph 27.6 mph N/A   Clear
12:55 PM 51.8 °F - 33.8 °F 50% 29.80 in 10.0 mi WSW 21.9 mph 29.9 mph N/A   Scattered Clouds
1:15 PM 53.6 °F - 33.8 °F 47% 29.80 in 10.0 mi West 16.1 mph 27.6 mph N/A   Scattered Clouds
1:35 PM 53.6 °F - 33.8 °F 47% 29.80 in 10.0 mi West 18.4 mph 28.8 mph N/A   Partly Cloudy
1:55 PM 51.8 °F - 33.8 °F 50% 29.80 in 10.0 mi West 13.8 mph 24.2 mph N/A   Scattered Clouds
2:15 PM 53.6 °F - 33.8 °F 47% 29.81 in 10.0 mi West 11.5 mph 28.8 mph N/A   Clear
2:35 PM 53.6 °F - 33.8 °F 47% 29.81 in 10.0 mi WSW 19.6 mph 29.9 mph N/A   Clear
2:55 PM 53.6 °F - 32.0 °F 44% 29.81 in 10.0 mi WNW 10.4 mph 19.6 mph N/A   Partly Cloudy
3:15 PM 53.6 °F - 32.0 °F 44% 29.82 in 10.0 mi WSW 19.6 mph 27.6 mph N/A   Clear
3:35 PM 53.6 °F - 32.0 °F 44% 29.82 in 10.0 mi WSW 20.7 mph 26.5 mph N/A   Clear
4:15 PM 53.6 °F - 32.0 °F 44% 29.83 in 10.0 mi West 12.7 mph 25.3 mph N/A   Clear
4:35 PM 53.6 °F - 32.0 °F 44% 29.83 in 10.0 mi West 17.3 mph 25.3 mph N/A   Clear
4:55 PM 51.8 °F - 32.0 °F 47% 29.84 in 10.0 mi West 11.5 mph 26.5 mph N/A   Clear
5:15 PM 51.8 °F - 32.0 °F 47% 29.85 in 10.0 mi West 12.7 mph 19.6 mph N/A   Clear
5:35 PM 51.8 °F - 32.0 °F 47% 29.86 in 10.0 mi West 11.5 mph 16.1 mph N/A   Clear
5:55 PM 50.0 °F - 32.0 °F 50% 29.86 in 10.0 mi WNW 5.8 mph - N/A   Clear
6:15 PM 50.0 °F - 32.0 °F 50% 29.87 in 10.0 mi WNW 4.6 mph - N/A   Clear
6:35 PM 48.2 °F - 32.0 °F 54% 29.88 in 10.0 mi Calm Calm - N/A   Clear
6:55 PM 48.2 °F - 32.0 °F 54% 29.89 in 10.0 mi Calm Calm - N/A   Clear
7:15 PM 44.6 °F 41.4 °F 32.0 °F 61% 29.90 in 10.0 mi North 5.8 mph - N/A   Clear
7:35 PM 44.6 °F - 32.0 °F 61% 29.90 in 10.0 mi Calm Calm - N/A   Clear
7:55 PM 44.6 °F - 32.0 °F 61% 29.91 in 10.0 mi Calm Calm - N/A   Clear
8:15 PM 44.6 °F - 32.0 °F 61% 29.91 in 10.0 mi Calm Calm - N/A   Clear
8:35 PM 44.6 °F - 32.0 °F 61% 29.91 in 10.0 mi Calm Calm - N/A   Clear
8:55 PM 42.8 °F - 32.0 °F 66% 29.92 in 10.0 mi Calm Calm - N/A   Clear
9:15 PM 41.0 °F - 32.0 °F 70% 29.92 in 10.0 mi Calm Calm - N/A   Clear
9:35 PM 41.0 °F - 32.0 °F 70% 29.92 in 10.0 mi Calm Calm - N/A   Clear
9:55 PM 41.0 °F - 32.0 °F 70% 29.92 in 10.0 mi Calm Calm - N/A   Clear
10:15 PM 39.2 °F - 32.0 °F 75% 29.92 in 10.0 mi Calm Calm - N/A   Clear
10:35 PM 37.4 °F - 32.0 °F 81% 29.92 in 10.0 mi Calm Calm - N/A   Clear
10:55 PM 37.4 °F - 32.0 °F 81% 29.92 in 10.0 mi Calm Calm - N/A   Clear
11:15 PM 37.4 °F - 32.0 °F 81% 29.92 in 10.0 mi Calm Calm - N/A   Clear
11:35 PM 37.4 °F - 32.0 °F 81% 29.92 in 10.0 mi Calm Calm - N/A   Clear
11:55 PM 37.4 °F - 32.0 °F 81% 29.92 in 10.0 mi Calm Calm - N/A   Clear